Location: Ferri�re
(46.4740°N, 2.9135°E)
Time: 07:03:13
(UTC+00:00)

Daily predictions for brighter satellites

Satellite Brightness Start Highest point End
(mag) Time Altitude Azimuth Time Altitude Azimuth Time Altitude Azimuth
Cosmos 1900 4.4 19:39:33 10° SSW 19:44:23 61° ESE 19:49:21 10° NE
MONITOR-E 3.4 19:45:27 10° SSE 19:47:49 90° E 19:50:13 10° NNW
USA 267 3.5 19:42:52 10° ENE 19:49:11 49° SE 19:55:28 10° SSW
Cosmos 1821 Rocket 4.3 19:46:10 10° SSE 19:51:54 44° E 19:57:45 10° NNE
COSMOS 2406 3.4 19:48:01 10° S 19:53:35 52° ESE 19:59:08 10° NE
Shenzhou-11 Module 2.3 19:51:27 10° WSW 19:53:38 32° S 19:55:30 12° ESE
Cosmos 1743 Rocket 3.7 19:50:29 10° S 19:54:55 82° W 19:59:25 10° N
Cosmos 2366 rocket 4.3 19:49:30 10° SSW 19:55:45 76° W 20:01:59 10° N
CZ-2C R/B 3.8 19:52:11 10° NNE 19:56:46 57° E 20:01:14 10° S
SL-16 R/B 4.4 19:54:24 10° N 19:56:52 13° NE 19:59:21 10° ENE
Intercosmos 25 3.8 19:53:44 10° N 19:58:10 44° ENE 20:01:25 10° SSE
Lacrosse 5 3.7 19:55:23 10° NW 19:59:39 26° N 20:03:55 10° ENE
Cosmos 2369 4.2 19:57:27 10° NNW 20:03:00 48° ENE 20:08:05 12° SE
Cosmos 1862 3.3 19:59:10 10° S 20:03:10 65° E 20:07:12 10° NNE
Sich 1 3.5 19:59:55 10° SSE 20:04:07 44° E 20:08:20 10° NNE
SJ-6B 4.1 20:01:42 10° S 20:05:35 42° W 20:09:26 10° NNW
Meteor 2-6 Rocket 4.3 20:01:49 10° NNW 20:07:20 85° W 20:12:58 10° S
BREEZE-M DEB (TANK) 2.7 20:03:46 10° W 20:07:32 53° NNW 20:09:30 10° ENE
Cosmos 1818 3.7 20:02:07 10° NNW 20:07:35 67° NE 20:12:24 13° SE
IRIDIUM 106 4.3 20:02:51 10° S 20:08:02 71° E 20:13:15 10° N
Cosmos 2082 Rocket 3.0 20:04:03 10° SSE 20:08:53 29° ESE 20:13:42 10° NE
Cosmos 2278 4.5 20:06:51 10° NNW 20:12:14 39° NE 20:16:44 14° ESE
Cosmos 1500 Rocket 4.4 20:10:08 10° SSW 20:14:21 53° WNW 20:18:36 10° N
Spot 2 Rocket 4.1 20:11:25 13° SE 20:15:38 42° ENE 20:20:26 10° N
Resurs 1-3 4.0 20:14:57 10° S 20:19:17 63° WSW 20:23:39 10° NNW
Cosmos 2322 Rocket 4.3 20:16:25 10° N 20:19:33 15° NE 20:22:40 10° ENE
Meteor 1-4 Rocket 3.4 20:17:26 10° N 20:20:36 31° ENE 20:22:26 19° SE
Cosmos 2239 Rocket 4.5 20:15:08 10° S 20:21:09 63° E 20:27:14 10° NNE
Cosmos 1190 Rocket 4.3 20:16:40 10° S 20:21:39 45° ESE 20:26:41 10° NNE
Cosmos 1184 Rocket 4.3 20:21:02 18° ESE 20:21:45 19° E 20:24:09 10° NE
Terra 3.6 20:21:08 12° E 20:23:51 18° ENE 20:27:05 10° NNE
CZ-2C R/B 3.4 20:19:26 10° N 20:24:28 53° WNW 20:29:30 10° SW
Cosmos 407 Rocket 3.6 20:19:20 10° S 20:24:32 58° ESE 20:29:45 10° NNE
USA 234 3.5 20:18:46 12° ESE 20:24:49 65° NNE 20:31:17 10° NW
SL-8 R/B 4.3 20:20:49 10° WNW 20:25:27 47° SSW 20:28:49 18° SE
Cosmos 1666 Rocket 3.8 20:21:33 10° SSE 20:25:42 48° E 20:29:53 10° NNE
Cosmos 1238 Rocket 4.2 20:28:02 13° E 20:28:02 13° E 20:29:19 10° ENE
MetOp-B 4.1 20:25:44 13° SSE 20:30:33 74° ENE 20:35:56 10° N
Meteor 1-27 Rocket 3.8 20:25:30 10° N 20:31:26 79° ENE 20:36:53 13° SSE
BREEZE-M DEB (TANK) 3.7 20:33:15 10° WNW 20:37:10 22° SW 20:39:00 13° S
USA 238 DEB 4.3 20:31:35 10° S 20:37:19 32° ESE 20:43:13 10° NE
USA 238 4.3 20:31:44 10° S 20:37:25 32° ESE 20:43:19 10° NE
Cosmos 1805 Rocket 4.1 20:33:03 10° SSW 20:37:26 63° W 20:41:53 10° N
SPOT 5 3.8 20:35:54 19° ESE 20:38:01 28° ENE 20:41:43 10° N
SPOT 1/Viking Rocket 3.7 20:39:53 20° SE 20:43:27 60° ENE 20:48:36 10° N
Cosmos 1980 Rocket 2.4 20:37:54 10° NNW 20:43:32 58° ENE 20:47:05 22° SE
SL-4 R/B 1.8 20:43:18 10° SW 20:47:12 58° SSE 20:50:49 10° ENE
BREEZE-M DEB (TANK) 2.8 20:45:41 10° W 20:48:20 65° N 20:55:00 10° ENE
Genesis I 3.7 20:45:12 10° NNW 20:48:59 48° NE 20:50:44 27° ESE
Cosmos 405 Rocket 3.9 20:49:22 23° E 20:49:30 23° E 20:52:29 10° NE
Cosmos 1140 Rocket 3.4 20:44:57 10° SSW 20:50:11 74° ESE 20:55:27 10° NNE
ATLAS 5 CENTAUR R/B 3.3 20:46:33 10° NW 20:52:00 42° WSW 20:57:17 14° S
Cosmos 1023 Rocket 4.4 20:49:25 10° SSW 20:54:42 83° ESE 21:00:01 10° NNE
Cosmos 389 Rocket 4.4 20:51:58 10° NW 20:54:54 26° W 20:57:49 10° SSW
USA 32 4.1 20:53:02 21° SSE 20:56:27 58° E 21:01:35 10° NNE
Cosmos 1812 4.3 20:54:31 10° NNW 20:57:59 32° W 21:01:26 10° SSW
Cosmos 1633 Rocket 3.0 20:55:05 14° S 20:58:57 90° ESE 21:03:24 10° N
Cosmos 1697 Rocket 3.0 20:53:42 10° NNW 20:59:15 63° WSW 21:03:04 20° S
Cosmos 1833 Rocket 2.9 20:53:44 10° SSW 20:59:20 73° WNW 21:05:00 10° NNE
Cosmos 1867 3.5 21:00:21 10° SSW 21:05:41 62° ESE 21:11:05 10° NE
CENTAUR R/B 3.2 21:04:46 27° SE 21:05:58 28° ESE 21:11:33 10° NE
Okean 1-7 4.1 21:03:47 10° NNE 21:07:34 29° ENE 21:08:30 26° E
Resurs 01 Rocket 3.3 21:05:35 10° SSW 21:09:26 29° W 21:13:20 10° NW
Landsat 7 4.1 21:09:00 22° S 21:12:02 63° WSW 21:16:46 10° NNW
FALCON 9 DEB 3.0 21:09:25 10° SW 21:12:54 71° SSE 21:15:21 18° ENE
deb Kosmos-1763 4.1 21:14:16 21° SSW 21:16:34 78° WNW 21:20:13 10° NNE
Cosmos 676 Rocket 3.9 21:14:03 12° SSW 21:19:05 83° ESE 21:24:27 10° NNE
IGS 5A 4.3 21:17:35 22° SSW 21:19:53 46° W 21:23:53 10° NNW
Cosmos 192 4.3 21:16:03 10° NNW 21:20:59 86° WSW 21:22:57 37° SSE
ATLAS 5 CENTAUR R/B 3.6 21:18:53 10° N 21:21:05 21° NE 21:23:25 15° E
Meteor 1-25 Rocket 4.1 21:17:53 23° S 21:21:23 77° E 21:27:01 10° NNE
Cosmos 1470 Rocket 3.5 21:19:31 30° S 21:21:40 87° ESE 21:26:06 10° N
Cosmos 1934 Rocket 4.4 21:17:22 10° SSW 21:23:41 66° WNW 21:30:03 10° N
Aureole 1 Rocket 4.4 21:18:08 10° SSW 21:24:52 85° WNW 21:33:11 10° NNE
GP-B 3.7 21:23:36 10° N 21:27:56 54° W 21:30:41 21° SSW
NOSS 3-2 (A) 3.2 21:26:04 10° SSW 21:31:41 70° SE 21:38:08 10° NE
USA 267 3.7 21:25:52 10° NE 21:32:19 64° NNW 21:38:46 10° WSW
Cosmos 921 Rocket 2.8 21:29:43 10° NNW 21:33:58 86° WSW 21:34:50 56° SSE
Cosmos 1862 Rocket 4.4 21:31:52 10° NNW 21:36:10 47° W 21:38:10 27° SSW
NOSS 3-2 (C) 3.5 21:35:51 37° SSE 21:37:40 49° ESE 21:43:49 10° NE
ERS-1 Rocket 3.1 21:36:08 35° S 21:38:14 68° WSW 21:43:16 10° NNW
Cosmos 841 Rocket 4.5 21:35:43 10° N 21:40:30 35° ENE 21:42:00 29° E
SAR-Lupe-2 3.7 21:37:42 10° N 21:41:17 70° WNW 21:41:55 55° SW
Cosmos 540 Rocket 4.5 21:37:13 10° N 21:41:57 35° ENE 21:43:22 29° E
SL-16 R/B 2.6 21:36:50 10° NNW 21:42:24 52° ENE 21:44:17 37° ESE
Lacrosse 5 2.4 21:38:32 10° NW 21:43:32 54° NNE 21:45:31 33° E
Cosmos 468 Rocket 4.0 21:38:56 10° NNW 21:44:17 76° ENE 21:45:45 48° SE
Cosmos 1741 Rocket 4.0 21:48:23 50° SSE 21:49:17 58° ESE 21:54:29 10° NNE
Cosmos 2082 Rocket 3.1 21:47:13 10° SW 21:52:43 49° WNW 21:58:13 10° NNE
Cosmos 2219 Rocket 4.5 21:49:27 10° N 21:52:48 16° NE 21:56:09 10° ENE
Terra 2.0 22:00:02 48° SSW 22:01:08 63° W 22:05:53 10° NNW
Cosmos 1933 Rocket 4.3 22:01:23 33° SW 22:02:58 50° WNW 22:07:17 10° N
Cosmos 2322 Rocket 2.4 21:59:09 10° NNW 22:04:48 63° ENE 22:06:13 48° ESE
Okean 1 4.1 22:02:47 10° NNW 22:06:38 44° W 22:07:07 42° WSW
Cosmos 1238 Rocket 4.2 22:06:54 23° W 22:07:06 23° WNW 22:09:34 10° NNW
Cosmos 2100 Rocket 3.9 22:05:36 48° SSE 22:07:24 75° E 22:13:33 10° NNE
USA 234 3.7 22:06:06 38° S 22:07:59 47° SW 22:14:17 10° WNW
Meteor 1-11 Rocket 4.2 22:09:09 41° ESE 22:09:31 41° E 22:14:50 10° NNE
Cosmos 1437 Rocket 3.1 22:07:16 10° NNW 22:10:50 56° W 22:10:50 56° W
Cosmos 1869 Rocket 3.4 22:13:01 84° ESE 22:13:04 84° E 22:17:33 10° N
SPOT 5 3.9 22:15:08 28° WSW 22:16:03 30° W 22:19:54 10° NW
Cosmos 2360 Rocket 2.8 22:13:29 10° NNW 22:18:57 46° NE 22:20:19 39° E
ATLAS 3B R/B 3.2 22:21:12 38° ESE 22:21:12 38° ESE 22:26:46 10° NE
Geosat 3.9 22:20:48 66° ESE 22:21:27 78° ENE 22:26:31 10° NNW
Iridium 4 Rocket 3.0 22:21:45 86° NW 22:21:45 86° NW 22:25:57 10° N
Cosmos 2173 Rocket 3.9 22:21:11 50° S 22:22:58 90° W 22:29:09 10° N
Cosmos 1703 Rocket 4.4 22:19:44 10° NNW 22:23:50 41° W 22:24:15 40° WSW
Cosmos 1500 3.8 22:25:10 55° NNW 22:25:10 55° NNW 22:28:13 10° N
Cosmos 405 Rocket 4.5 22:24:28 23° W 22:25:23 25° WNW 22:28:32 10° NNW
CRYOSAT 2 4.5 22:22:02 10° NNE 22:26:46 58° E 22:26:46 58° E
SL-4 R/B 2.8 22:23:15 10° W 22:26:53 43° NNW 22:27:13 42° N
Cosmos 1980 Rocket 3.8 22:22:41 10° NW 22:27:06 24° WSW 22:28:51 21° SW
ALOS 2 3.8 22:27:44 31° ENE 22:27:44 31° ENE 22:31:32 10° N
USA 238 DEB 4.1 22:21:16 10° SW 22:27:51 62° NW 22:34:45 10° NE
USA 238 4.1 22:21:23 10° SW 22:27:57 62° NW 22:34:51 10° NE
Cosmos 1725 Rocket 4.1 22:27:19 52° SE 22:28:18 58° E 22:34:30 10° NNE
Cosmos 1763 Rocket 3.9 22:25:17 10° NNW 22:30:27 52° WSW 22:31:09 48° SW
SL-08 R/B 4.4 22:32:18 57° SE 22:33:08 64° E 22:39:10 10° NNE
Cosmos 1536 4.0 22:34:39 35° NE 22:34:39 35° NE 22:37:17 10° NNE
Cosmos 1666 3.9 22:37:32 36° NNE 22:37:32 36° NNE 22:39:55 10° NNE
Cosmos 2333 Rocket 3.6 22:34:12 10° NNW 22:39:18 31° NE 22:41:19 25° E
Cosmos 2016 Rocket 3.9 22:39:51 59° S 22:41:11 85° E 22:47:36 10° N
Meteor 1-5 Rocket 4.4 22:40:38 53° SSW 22:42:04 76° WNW 22:48:03 10° N
Cosmos 2061 Rocket 3.9 22:41:22 61° S 22:42:35 87° E 22:48:49 10° N
Lacrosse 4 Rocket 3.8 22:45:24 14° ENE 22:45:24 14° ENE 22:46:14 10° NE
Meteor 1-13 Rocket 4.0 22:37:16 10° NNW 22:42:49 83° W 22:43:23 72° SSW
Cosmos 1459 Rocket 4.2 22:42:36 42° SW 22:44:40 65° WNW 22:51:00 10° N
MOS 1-B Rocket 3.7 22:40:00 10° NNE 22:45:43 84° WNW 22:46:44 62° SSW
Cosmos 2221 Rocket 3.7 22:42:24 10° NNW 22:46:29 71° NW 22:46:29 71° NW
Cosmos 1733 Rocket 3.6 22:50:59 52° NE 22:50:59 52° NE 22:54:30 10° NNE
Okean 3 4.1 22:46:47 10° NNW 22:50:30 53° WNW 22:50:30 53° WNW
SL-27 R/B 4.4 22:53:08 28° NNW 22:53:08 28° NNW 22:55:12 10° N
Cosmos 1066 Rocket 4.1 22:47:36 10° N 22:53:21 72° ENE 22:53:46 68° ESE
Cosmos 1864 Rocket 4.4 22:53:23 65° S 22:54:24 90° SE 23:00:41 10° N
Meteor 1-23 Rocket 4.2 22:49:18 10° N 22:55:10 72° ENE 22:55:43 67° ESE
CENTAUR R/B 2.9 22:51:50 21° WSW 22:55:59 64° NW 23:03:09 10° NE
Thor Agena Rocket 3.4 22:51:50 10° NNE 22:56:57 90° E 22:57:00 88° S
Cosmos 967 Rocket 4.3 22:53:53 10° NW 23:00:16 80° WSW 23:01:03 69° S
Cosmos 1802 Rocket 4.3 22:58:40 44° SW 23:00:34 61° WNW 23:06:53 10° N
Cosmos 44 3.5 22:57:07 10° NW 23:01:33 63° W 23:01:33 63° W
Spot 4 4.2 23:06:33 58° W 23:06:33 58° W 23:11:03 10° NNW
Cosmos 2233 Rocket 3.8 23:14:31 71° SSE 23:15:16 83° E 23:21:38 10° N
SL-16 R/B 3.5 23:21:30 10° NW 23:26:08 27° WSW 23:26:08 27° WSW
Lacrosse 5 3.2 23:21:43 10° WNW 23:24:41 29° W 23:24:41 29° W
Cosmos 1833 4.1 23:28:44 82° WSW 23:28:57 84° WNW 23:34:39 10° NNE
Cosmos 2322 3.6 23:23:38 10° NNW 23:29:21 82° ENE 23:29:31 81° E
Cosmos 1378 Rocket 4.2 23:25:15 10° NNW 23:28:49 55° NNW 23:28:49 55° NNW
Cosmos 2219 Rocket 2.3 23:32:12 10° NNW 23:37:53 68° ENE 23:38:19 65° E
Tsikada Rocket 4.5 23:32:52 10° NNW 23:38:55 48° W 23:39:45 46° WSW
Cosmos 1975 Rocket 4.0 23:38:45 10° N 23:42:25 45° NE 23:42:25 45° NE
Cosmos 2333 4.1 23:37:56 10° NNW 23:43:43 79° WSW 23:43:43 79° WSW
Cosmos 1503 Rocket 4.4 23:45:55 54° E 23:45:55 54° E 23:50:37 10° NNE
Cosmos 1072 Rocket 4.5 23:46:51 61° ESE 23:47:13 62° E 23:53:15 10° NNE
Cosmos 2322 Rocket 3.8 23:44:05 10° NW 23:48:01 22° W 23:48:01 22° W
Helios 1A 3.8 23:49:48 49° N 23:49:48 49° N 23:52:58 10° NNW
Cosmos 1486 Rocket 4.0 23:52:11 74° NW 23:52:11 74° NW 23:57:15 10° NNE
CZ-2D R/B 4.5 23:52:09 10° ENE 23:54:03 12° E 23:54:54 11° E
